Home > Weather > Kazan > Past weeks

Flag for Russia Weather for the Past 2 Weeks in Kazan, Russia

Now
52 °F

Overcast.


Feels Like: 51 °F
Forecast: 44 / 60 °F
Wind: 3 mph from East

Location: Kazan'

Current Time: May 3, 2016 at 7:55:07 PM

Latest Report: May 3, 2016 at 7:00 PM


Visibility: N/A

Pressure: 30.04 "Hg

Humidity: 77%

Dew Point: 45 °F

Location of KazanLocation

Historic Weather in Kazan — Graph

°F

Kazan Temperature Yesterday

Maximum temperature yesterday: 64 °F (at 2:00 PM)
Minimum temperature yesterday: 48 °F (at 12:00 AM)
Average temperature yesterday: 55 °F

High & Low Weather Summary for the Past Weeks

 TemperatureHumidityPressure
High68 °F (Apr 26, 1:00 PM)100% (Apr 19, 2:30 AM)30.39 "Hg (Apr 19, 2:30 AM)
Low34 °F (Apr 19, 2:30 AM)19% (Apr 27, 2:30 PM)29.39 "Hg (Apr 21, 10:00 PM)
Average50 °F60%29.99 "Hg
* Reported Apr 18 6:00 PM — May 3 6:30 PM, Kazan, Weather by CustomWeather, © 2016

Note: Actual official high and low records may vary slightly from our data, if they occured in-between our weather recording intervals... More about our weather records

Advertising

Kazan Weather History for the Previous 24 Hours

Scroll right to see more
 ConditionsComfort  
Time TempWeatherWind HumidityBarometerVisibility
6:30 PM
Tue, May 3
54 °FOvercast.6 mph67%30.04 "HgN/A
6:00 PM54 °FOvercast.6 mph72%30.04 "HgN/A
5:30 PM54 °FOvercast.6 mph67%30.04 "HgN/A
5:00 PM54 °FOvercast.8 mph72%30.04 "HgN/A
4:30 PM54 °FPartly sunny.8 mph72%30.07 "HgN/A
4:00 PM54 °FPartly sunny.10 mph72%30.07 "HgN/A
3:30 PM54 °FPartly sunny.8 mph72%30.07 "HgN/A
3:00 PM54 °FPartly sunny.10 mph72%30.07 "HgN/A
2:30 PM54 °FPartly sunny.6 mph72%30.07 "HgN/A
2:00 PM54 °FPartly sunny.8 mph72%30.07 "HgN/A
1:30 PM54 °FPartly sunny.8 mph72%30.07 "HgN/A
1:00 PM52 °FPartly sunny.8 mph77%30.09 "HgN/A
12:30 PM52 °FPartly sunny.10 mph82%30.09 "HgN/A
12:00 PM52 °FPartly sunny.8 mph77%30.09 "HgN/A
11:30 AM52 °FPartly sunny.8 mph77%30.09 "HgN/A
11:00 AM52 °FPartly sunny.8 mph77%30.09 "HgN/A
10:30 AM52 °FPartly sunny.10 mph77%30.09 "HgN/A
10:00 AM54 °FOvercast.13 mph72%30.09 "HgN/A
9:30 AM54 °FOvercast.10 mph72%30.09 "HgN/A
9:00 AM52 °FPartly sunny.8 mph77%30.09 "HgN/A
8:30 AM52 °FPartly sunny.10 mph77%30.09 "HgN/A
8:00 AM52 °FPartly sunny.8 mph77%30.09 "HgN/A
7:30 AM52 °FSunny.8 mph77%30.09 "Hg10 mi
6:30 AM48 °FOvercast.10 mph82%30.09 "HgN/A
6:00 AM48 °FOvercast.10 mph82%30.09 "HgN/A
5:30 AM48 °FPartly sunny.8 mph76%30.09 "HgN/A
4:30 AM46 °FSunny.8 mph82%30.09 "Hg10 mi
4:00 AM45 °FSunny.8 mph81%30.09 "Hg10 mi
3:30 AM45 °FClear.8 mph81%30.09 "Hg10 mi
3:00 AM46 °FClear.8 mph76%30.09 "Hg10 mi
2:30 AM46 °FClear.8 mph76%30.09 "Hg10 mi
2:00 AM48 °FClear.8 mph76%30.09 "Hg10 mi
1:30 AM48 °FClear.8 mph76%30.09 "Hg10 mi
1:00 AM48 °FClear.6 mph76%30.09 "Hg10 mi
12:00 AM48 °FClear.6 mph82%30.09 "Hg10 mi
11:30 PM
Mon, May 2
48 °FClear.6 mph82%30.09 "Hg10 mi
11:00 PM48 °FClear.3 mph82%30.09 "Hg10 mi
10:30 PM48 °FClear.3 mph82%30.12 "Hg10 mi
10:00 PM48 °FClear.6 mph82%30.09 "Hg10 mi
9:30 PM48 °FClear.3 mph82%30.12 "Hg10 mi
9:00 PM52 °FClear.6 mph72%30.12 "Hg10 mi
8:30 PM50 °FClear.6 mph76%30.12 "Hg10 mi
8:00 PM50 °FClear.6 mph76%30.12 "Hg10 mi
7:30 PM52 °FClear.6 mph77%30.12 "Hg10 mi
7:00 PM52 °FScattered clouds.6 mph77%30.12 "HgN/A
Weather by CustomWeather, © 2016

See weather overviewHow to use our weather pages